Regional Weather Roundup
Issued by NWS

Home | Current Version | Previous Version | Text Only | Print | Product List | Glossary Off
Versions: 1 2 3 4 5 6 7 8 9 10 11 12 13 14 15 16 17 18 19 20 21 22 23 24 25 26 27 28 29 30 31 32 33 34 35 36 37 38 39 40 41 42 43 44 45 46 47 48 49 50

000
ASUS43 KIND 280559
RWRIN

WEATHER ROUNDUP FOR INDIANA
NATIONAL WEATHER SERVICE INDIANAPOLIS IN
200 AM EDT TUE APR 28 2015

NOTE: "FAIR" INDICATES FEW OR NO CLOUDS BELOW 12,000 FEET WITH NO
SIGNIFICANT WEATHER AND/OR OBSTRUCTIONS TO VISIBILITY.

* - STATION DOES NOT REPORT WEATHER SUCH AS PRECIPITATION OR FOG.

+ - STATION NOT QUALITY CONTROLLED BY THE NATIONAL WEATHER SERVICE.
    USE DATA WITH CAUTION...ESPECIALLY DEWPOINT AND RELATIVE
    HUMIDITY OBSERVATIONS.

INZ001>003-010>013-019-020-280700-
NORTHWEST INDIANA

CITY           SKY/WX    TMP DP  RH WIND       PRES   REMARKS

$$

LMZ046-743>745-280700-
SOUTHERN LAKE MICHIGAN

STATION/POSITION TIME  TEMP    WIND        PRES    WAVE
                       AIR SEA DIR/SP/G            HT
                 (UTC) (F)     (DEG/KT/KT) (MB)    (FT)
BURNS HARBOR     0500   42      40/  4/  5 1020.3S
MICHIGAN CITY    0500   41     360/  3/  5   N/A
5NW MICH CITY    0500   40 46   30/  4/  6   N/A     2

$$

INZ004-005-014>016-021>024-280700-
NORTH CENTRAL INDIANA

CITY           SKY/WX    TMP DP  RH WIND       PRES   REMARKS
GOSHEN         CLEAR     36  32  85 CALM      30.10S
6HR MIN TEMP:  36; 6HR MAX TEMP:  50;

SOUTH BEND     CLEAR     37  31  78 CALM      30.11S
6HR MIN TEMP:  37; 6HR MAX TEMP:  49;


$$

INZ006>009-017-018-025>027-280700-
NORTHEAST INDIANA

CITY           SKY/WX    TMP DP  RH WIND       PRES   REMARKS
ANGOLA *+      CLEAR     36  34  93 CALM      30.09S
FORT WAYNE     CLEAR     35  32  88 NW3       30.10S
6HR MIN TEMP:  35; 6HR MAX TEMP:  50;


$$

INZ028-029-035-036-043>045-051>053-280700-
WEST CENTRAL INDIANA

CITY           SKY/WX    TMP DP  RH WIND       PRES   REMARKS
GREENCASTLE +  CLEAR     41  32  70 NE5       30.09R
LAFAYETTE      CLEAR     40  34  79 CALM      30.09F
6HR MIN TEMP:  39; 6HR MAX TEMP:  51;

TERRE HAUTE    CLEAR     41  35  79 N3        30.09R
6HR MIN TEMP:  41; 6HR MAX TEMP:  54;


$$

INZ030>032-037>040-046>048-054>057-064-065-280700-
CENTRAL INDIANA

CITY           SKY/WX    TMP DP  RH WIND       PRES   REMARKS
FRANKFORT +    CLEAR     39  35  86 N3        30.11R
6HR MIN TEMP:  39; 6HR MAX TEMP:  52;

GREENWOOD *+   CLEAR     43  34  70 E3        30.08S
INDIANAPOLIS   CLEAR     45  36  70 E7        30.07R
6HR MIN TEMP:  44; 6HR MAX TEMP:  53;

-EAGLE CREEK   CLEAR     44  36  73 CALM      30.08S
6HR MIN TEMP:  44; 6HR MAX TEMP:  52;

KOKOMO *+      CLEAR     39  34  81 E5        30.09S
6HR MIN TEMP:  37; 6HR MAX TEMP:  54;

MT COMFORT *+  CLEAR     41  32  70 NE5       30.09S
SHELBYVILLE    CLEAR     45  37  73 NE8       30.07S
6HR MIN TEMP:  45; 6HR MAX TEMP:  55;


$$

INZ033-034-041-042-049-050-058-059-280700-
EAST CENTRAL INDIANA

CITY           SKY/WX    TMP DP  RH WIND       PRES   REMARKS
MUNCIE         CLEAR     39  34  82 CALM      30.09S
6HR MIN TEMP:  39; 6HR MAX TEMP:  51;


$$

INZ060-061-067>069-081>083-085>088-280700-
SOUTHWEST INDIANA

CITY           SKY/WX    TMP DP  RH WIND       PRES   REMARKS
EVANSVILLE     CLEAR     48  38  68 N5        30.07S
6HR MIN TEMP:  47; 6HR MAX TEMP:  61;

HUNTINGBURG *+ CLEAR     45  34  65 N3        30.07S
6HR MIN TEMP:  45; 6HR MAX TEMP:  57;


$$

INZ062-063-066-070>080-084-089>092-280700-
SOUTH CENTRAL AND SOUTHEAST INDIANA

CITY           SKY/WX    TMP DP  RH WIND       PRES   REMARKS
BLOOMINGTON    CLEAR     42  36  79 NE7       30.07S
6HR MIN TEMP:  39; 6HR MAX TEMP:  54;

MADISON *+     CLEAR     45  36  70 NE3       30.08S
SEYMOUR +      CLEAR     43  37  81 NE6       30.07R

$$



USA.gov is the U.S. government's official web portal to all federal, state and local government web resources and services.